Tracking 29892 objects as of 21-Nov-2024
HD Live streaming from Space Station
objects crossing your sky now

SL-12 R/B(AUX MOTOR)

Track SL-12 R/B(AUX MOTOR) now!
10-day predictions


NORAD ID: 16446
Int'l Code: 1985-118L
Perigee: 445.6 km
Apogee: 18,250.2 km
Inclination: 64.9 °
Period: 326.9 minutes
Semi major axis: 15718 km
RCS: 0.6158 m2 (medium)
Launch date: December 24, 1985
Source: Commonwealth of Independent States (former USSR) (CIS)
Launch site: TYURATAM MISSILE AND SPACE COMPLEX (TTMTR)

Note: This is a ROCKET BODY
Your satellite tracking list
Your tracking list is empty




NASA's NSSDC Master Catalog

Two Line Element Set (TLE):
1 16446U 85118L   24325.69794030  .00000974  00000-0  12534-2 0  9995
2 16446  64.8683 189.6731 5663460  36.0360 351.4450  4.40524056612574
Source of the keplerian elements: AFSPC